Regional Weather Roundup
Issued by NWS

Home | Current Version | Previous Version | Text Only | Print | Product List | Glossary Off
Versions: 1 2 3 4 5 6 7 8 9 10 11 12 13 14 15 16 17 18 19 20 21 22 23 24 25 26 27 28 29 30 31 32 33 34 35 36 37 38 39 40 41 42 43 44 45 46 47 48 49 50

000
ASUS43 KLOT 251408
RWRIL

ILLINOIS REGIONAL WEATHER ROUNDUP
NATIONAL WEATHER SERVICE CHICAGO/ROMEOVILLE IL
800 AM CST SUN FEB 25 2018

NOTE: "FAIR" INDICATES FEW OR NO CLOUDS BELOW 12,000 FEET WITH NO
SIGNIFICANT WEATHER AND/OR OBSTRUCTIONS TO VISIBILITY.

* THESE STATIONS ARE NOT UNDER NWS QUALITY CONTROL. THEY ALSO MAY NOT
  REPORT WEATHER SUCH AS PRECIPITATION OR FOG.

ILZ001-002-007-009-015-016-024-251500-
NORTHWEST ILLINOIS

CITY           SKY/WX    TMP DP  RH WIND       PRES   REMARKS
MOLINE         FAIR      32  26  78 W16       29.88R WCI  21
STERLING*      FAIR      31  24  75 W21G26    29.86R WCI  18
SAVANNA*       FAIR      29  21  71 W14G24    29.86R WCI  18
$$

ILZ003-004-008-010-011-017-018-251500-
NORTH CENTRAL ILLINOIS

CITY           SKY/WX    TMP DP  RH WIND       PRES   REMARKS
ROCKFORD       FAIR      31  23  72 W17G30    29.82R WCI  19
FREEPORT*      FAIR      29  22  75 W20G25    29.83R WCI  16
ROCHELLE*      FAIR      32  26  80 W22       29.84R WCI  19
DE KALB*       FAIR      32  26  77 W17G25    29.82R WCI  21
PERU*          FAIR      32  26  76 W17G26    29.88R WCI  21
$$

ILZ005-006-012>014-019>023-251500-
NORTHEAST ILLINOIS

CITY           SKY/WX    TMP DP  RH WIND       PRES   REMARKS
CHICAGO-OHARE  PTSUNNY   34  25  69 W21G29    29.81R WCI  22
CHICAGO-MIDWAY PTSUNNY   35  28  75 SW17G29   29.83R WCI  25
AURORA         PTSUNNY   34  27  75 W20G28    29.84R WCI  23
LANSING*       CLOUDY    34  30  85 SW16G22   29.86R WCI  24
JOLIET*        CLOUDY    36  28  74 SW17G24   29.87R WCI  25
WAUKEGAN       FAIR      33  24  69 SW16G29   29.75R WCI  23
DUPAGE AIRPORT CLOUDY    34  27  75 SW21G31   29.81R WCI  22
KANKAKEE*      CLOUDY    35  28  77 W20       29.91R WCI  24
WHEELING       FAIR      35  26  69 W15G25    29.80R WCI  25
MORRIS*        CLOUDY    34  28  76 W10       29.87R WCI  26
ROMEOVILLE*    CLOUDY    34  28  81 W17G23    29.85R WCI  23
NORTHERLY ISL    N/A     35  26  70 SW10        N/A  WCI  27
$$

LMZ740>746-251500-
SOUTHERN LAKE MICHIGAN

STATION/POSITION SKY/WX   TEMP    WIND        PRES    VSBY  WAVE
                          AIR SEA DIR/SP/G                  HT/PER
                          (F)     (DEG/KT/KT) (MB)    (MI)  (FT/S)
HARRISON CRIB              36     240/ 17/ 20   N/A
BURNHAM HARBOR             35     210/ 17/ 20   N/A
CALUMET HARBOR             35     230/ 14/ 23 1009.7R
BURNS HARBOR               35     230/ 15/ 27 1011.2
MICHIGAN CITY              34     230/ 28/ 31   N/A
$$

ILZ025>027-034>036-040-047-049-050-058-095>099-251500-
WEST-CENTRAL ILLINOIS

CITY           SKY/WX    TMP DP  RH WIND       PRES   REMARKS
QUINCY         SUNNY     32  24  72 W10       29.98R WCI  24
GALESBURG*     FAIR      32  27  80 W13       29.93R WCI  22
MACOMB*        SUNNY    N/A N/A N/A W13G20    29.97R
JACKSONVILLE*  SUNNY     33  26  76 W10G17    29.99R WCI  25
PITTSFIELD*    SUNNY     33  27  79 SW7       30.01R WCI  27
$$

ILZ028>032-037-038-041>044-048-051>054-059>061-251500-
CENTRAL ILLINOIS

CITY           SKY/WX    TMP DP  RH WIND       PRES   REMARKS
PONTIAC        CLOUDY    35  32  90 W18       29.93R WCI  24
BLOOMINGTON    CLOUDY    33  28  81 W16G22    29.95R WCI  23
DECATUR        FAIR      34  30  85 SW12      29.98R WCI  25
PEORIA         PTSUNNY   33  26  75 W9        29.95R WCI  25
LACON*         FAIR      33  26  73 W12G21    29.92R WCI  25
LINCOLN*       PTSUNNY   35  31  83 W7        29.98R WCI  29
SPRINGFIELD    FAIR      35  29  78 W13       29.99R WCI  26
TAYLORVILLE    FAIR      34  30  85 SW13      30.00R WCI  25
$$

ILZ033-039-045-046-055>057-062-063-251500-
EAST-CENTRAL ILLINOIS

CITY           SKY/WX    TMP DP  RH WIND       PRES   REMARKS
CHAMPAIGN      CLOUDY    34  31  88 SW16      29.96R WCI  24
DANVILLE*      CLOUDY    35  30  83 SW17      29.93R WCI  24
RANTOUL*       CLOUDY    36  32  85 W10G17    29.96R WCI  28
MATTOON        FAIR      36  30  79 SW10      30.00R WCI  28
PARIS*         FAIR      34  32  92 S12       30.02R WCI  26
$$

ILZ079-100>102-251500-
SOUTHWEST ILLINOIS

CITY           SKY/WX    TMP DP  RH WIND       PRES   REMARKS
ALTON          MOSUNNY   36  32  87 SW9       30.05R WCI  29
BELLEVILLE     SUNNY     37  30  78 S9        30.05R WCI  30
CAHOKIA*       SUNNY     36  30  79 SW7       30.06R WCI  30
SPARTA*        SUNNY     35  32  90 SW6       30.09R WCI  30
$$

ILZ064>066-069>071-074>076-080>082-084>086-088>090-092>094-251500-
SOUTH-CENTRAL ILLINOIS

CITY           SKY/WX    TMP DP  RH WIND       PRES   REMARKS
CARBONDALE     FAIR      39  33  79 W6        30.10R WCI  35
CAIRO*         FAIR      43  32  66 W5        30.12R
EFFINGHAM*     FAIR      36  33  88 S8        30.06R WCI  30
MARION         PTSUNNY   39  30  70 W5        30.10R
MT. VERNON     FAIR      38  32  79 SW7       30.08R WCI  33
CENTRALIA*     CLOUDY    37  32  84 SW9       30.06R WCI  30
SALEM*         FAIR      37  32  81 SW10      30.06R WCI  30
METROPOLIS*    FAIR      42  33  69 NW3       30.11S
$$

ILZ067-068-072-073-078-083-087-091-251500-
SOUTHEAST ILLINOIS

CITY           SKY/WX    TMP DP  RH WIND       PRES   REMARKS
LAWRENCEVILLE  FAIR      40  31  70 W8        30.07R
FLORA*         FAIR      39  33  78 SW8       30.07R WCI  34
FAIRFIELD*     FAIR      40  34  80 MISG      30.07S
HARRISBURG*    FAIR      41  33  74 W7        30.10R
ROBINSON*      FAIR      37  32  81 SW13      30.06R WCI  29
CARMI*         FAIR      41  34  76 SW6       30.08R
$$

ABBREVIATIONS USED IN REMARKS
   TC - TEMPERATURE IN CELSIUS
  WCI - WIND CHILL INDEX
   HX - HEAT INDEX
  VSB - VISIBILITY
$$





USA.gov is the U.S. government's official web portal to all federal, state and local government web resources and services.